DECAYED

STARLINK-1145, 45066 (Decayed)

Orbit data source: Space-Track

STARLINK-1145, 45066 was a payload satellite owned by SpaceX/Seattle (US) in LEO that was launched on Wed, 29 Jan 2020 UTC via an FALCON 9 launch vehicle from the Air Force Eastern Test Range (AFETR). Payload-class satellites include a variety of spacecraft equipped with specific instruments for various scientific and technological missions. These include communications satellites like Starlink; space stations such as the ISS; scientific satellites like the Hubble; Earth observation satellites from companies like Planet Labs, Umbra, and HawkEye 360; GPS; miniature CubeSats for education and research; and military/defense satellites.

Not visible in the next 10 days
Identifier
45066, 2020-006Y
Orbit
Decayed
Country
Flag of USUS
Related business
Manufacturer
SpaceX/Seattle
Mission
Decayed Commercial Communications
Bus & Motor
STARLINK, Unknown motor
Mass
260 kg wet, ~248 kg dry
Launch date (UTC)
2020-01-29 (6 years ago)
Launch vehicle
FALCON 9
Launch site
Air Force Eastern Test Range (AFETR)
Object type
Payload
Rocket body
Debris
Shape & HBR
Box + 1 Pan, 10.1 m
Radar Cross Section
13.562 m², Large (>1 m²)

Expand to show TLE details & history
Last TLE update: 1 year ago

TLE from 1 year ago
0 STARLINK-1145
1 45066U 20006Y   25028.97716644  .00144715  12331-4  10000-3 0  9990
2 45066  52.2463 241.8623 0603455 342.4545 159.3103 16.35636332276613
Epoch: 2025-01-28T23:27Z
TLE epoch observation values (Epoch: 2025-01-28T23:27:07.180Z)
Latitude
27.74016°
Longitude
-82.28759°
Altitude
551.51 km
Speed
7.371 km/s
True Right ascension
02h 31m 52s
True Declination
27° 35' 40"
Sunlit
Object was in daylight at epoch
Visualization orbit readout
Latitude
Unknown
Longitude
Unknown
Altitude
Unknown
Speed
Unknown
Apparent Right ascension
Unknown
Apparent Declination
Unknown
Sunlit
N/A
Visualization observer readout
Local Sidereal Time
19:26:02
Azimuth
Unknown
Elevation
Unknown
Doppler factor
Unknown
Orbital elements
Apogee altitude
573.486 km
Perigee altitude
-217.764 km
Semi-major axis
6,555.998 km
Eccentricity
0.06035
Inclination
52.2463°
RAAN
241.8623°
Arg. of periapsis
342.4545°
True anomaly
161.59142°
Mean anomaly
159.3103°
Eccentric anomaly
160.46636°
Mean motion
4.0887 °/min
Orbital period
88.05 mins
BSTAR
0.0001
Loading maneuver chart data...
Computing Atmospheric mass density...
Loading historical data...
Loading historical data...
Loading historical data...
Loading historical data...
Loading historical data...
Loading historical data...
Loading historical data...

Documentation

Showing up to 5 results
|